Powrót do katalogu

ZORKIY-2M NO. 6

AktywnyNaukaSSO
NORAD 59775·PAYLOAD·🇷🇺 Russia
Ta nazwa satelity nie została jeszcze potwierdzona przez oficjalne źródła.

Wystrzelony May 16, 2024 z Plesetsk Cosmodrome

Loading…

Następne Przeloty (najbliższe 24 godziny)

TLE

ŚwieżeSource: Space-Track

Epoka: Sep 14, 2026, 14:35 UTC

1 59775U 24092C   26257.60773962  .00008410  00000-0  28404-3 0  9996
2 59775  97.6755  31.4377 0007640 222.9023 137.1622 15.30911059129251

Śledź ZORKIY-2M NO. 6 w czasie rzeczywistym z AllMySat

Download on the App Store